Theta_e
302 298 299 299 299 299 298 297 297 297 296 295 294 293 293 293 292 292 293 293 293 292 291 291 290 289 289 290 290 290 290 289 289 289 289 289 290 290 289 289 289 288 288 287 286 288 286 285 286 285 286 286 285 285 284 284 285 285 285 285 285 283 284 285 284 285 283 283 284 284 285 285 287 287 286 286 287 287 287 287 287 287 287 286 286
297 296 296 296 297 297 295 296 295 294 294 294 294 293 293 292 292 292 292 292 293 293 292 292 291 291 291 290 290 290 289 289 288 288 288 289 290 289 289 288 288 288 288 287 287 286 285 285 285 285 285 285 285 285 284 287 285 284 284 282 284 284 283 284 286 284 281 280 280 281 282 283 284 285 285 285 285 286 287 287 286 286 286 286 288
294 295 295 295 296 295 295 295 295 296 294 294 293 292 292 292 292 292 292 292 292 293 292 291 291 291 291 289 290 288 288 289 288 288 289 288 288 289 288 288 288 287 287 287 286 286 285 285 285 285 285 286 284 283 283 283 283 283 283 283 282 282 284 286 284 284 281 281 281 280 278 280 283 282 283 285 287 287 287 286 286 286 287 288 287
295 294 294 294 295 294 293 293 294 293 293 293 292 292 292 292 292 292 292 292 292 292 292 291 291 289 288 289 289 287 287 288 287 287 287 287 287 288 288 288 287 287 287 287 287 286 285 285 285 284 285 285 283 283 282 282 283 283 283 284 283 281 281 281 285 283 282 281 277 279 279 279 277 277 281 285 286 286 284 285 286 287 287 286 286
294 292 292 292 293 293 293 293 293 292 292 292 292 292 292 292 292 292 292 292 292 292 292 290 290 288 288 288 287 287 287 286 286 285 286 287 287 287 287 287 287 286 286 286 286 285 285 284 284 284 284 284 284 283 282 283 283 283 283 283 282 282 281 280 282 283 282 284 281 279 277 276 276 278 281 282 282 283 284 285 286 286 285 285 286
296 294 294 293 294 293 290 291 292 292 292 293 293 293 292 292 292 292 292 292 291 291 291 290 290 289 287 286 285 285 285 285 285 285 285 286 287 287 287 287 287 286 286 286 285 285 284 284 284 284 283 283 284 283 283 282 282 282 282 282 282 282 281 281 280 283 284 284 283 282 282 277 278 280 279 276 282 284 284 285 284 284 284 286 286
293 293 293 292 292 291 290 291 292 291 292 292 292 292 292 292 292 291 291 291 291 291 291 290 289 289 288 288 287 287 286 286 287 287 287 287 287 286 286 286 286 286 285 285 285 285 284 284 284 283 283 283 284 283 282 282 282 282 283 282 282 285 282 280 280 280 281 281 283 282 282 283 282 279 276 278 276 279 280 281 283 283 284 284 285
295 293 293 293 292 292 291 291 291 292 292 291 292 292 291 291 291 291 291 291 291 291 290 290 289 289 288 288 288 287 287 286 287 287 287 286 286 286 285 285 285 285 285 284 284 284 284 283 283 283 283 283 283 282 282 282 283 283 283 283 282 282 281 280 279 280 279 279 283 281 281 281 280 280 279 277 277 275 276 281 282 283 283 282 284
295 294 292 292 292 292 292 291 291 290 290 291 291 291 291 291 291 290 290 290 290 290 290 290 290 289 288 288 287 287 287 286 286 287 286 286 285 285 285 285 285 285 284 284 283 284 284 283 283 283 282 282 284 282 282 282 281 281 281 281 281 281 281 281 280 280 279 280 279 279 279 279 279 279 279 278 277 275 276 276 277 280 281 282 282
295 295 294 293 293 292 292 290 289 290 291 291 291 291 290 290 290 290 289 289 289 290 290 289 289 289 288 287 287 286 286 284 285 285 285 285 285 284 284 284 284 284 284 283 283 283 283 283 282 282 282 282 283 281 281 281 281 281 281 280 280 280 281 281 280 280 280 280 280 280 279 278 277 278 277 277 277 277 275 276 277 277 276 279 281
294 294 293 293 291 291 289 289 289 288 288 289 289 290 289 290 289 289 289 289 289 289 289 289 289 289 288 287 287 286 285 284 284 284 284 284 284 284 284 284 284 283 283 283 283 283 282 283 282 281 281 283 282 280 280 280 280 280 281 280 281 280 280 280 282 282 281 280 279 279 278 279 278 277 277 277 276 275 276 276 277 278 277 277 279
294 292 290 290 289 288 287 288 288 288 288 288 288 289 289 289 289 289 288 288 288 288 288 288 288 288 288 287 287 287 285 285 284 284 284 284 283 283 283 283 283 283 282 282 282 282 282 281 281 281 281 281 280 280 280 280 280 280 279 279 279 279 279 280 279 279 279 279 279 279 279 279 279 278 278 278 277 276 276 276 276 277 277 278 280
294 292 291 290 290 289 288 288 287 287 288 288 288 289 289 289 288 288 288 288 287 287 287 288 287 287 287 287 287 287 286 285 285 284 284 284 283 283 282 282 282 281 281 281 282 282 282 281 281 280 280 280 280 279 279 280 280 279 279 279 278 278 278 278 278 278 278 278 278 278 278 279 278 278 279 278 278 277 276 275 276 277 275 276 278
293 293 292 291 291 290 289 288 288 288 288 288 288 288 288 289 288 288 288 287 287 286 287 287 287 287 287 286 286 286 285 285 285 285 284 284 284 283 283 283 282 282 282 282 282 282 281 281 281 280 280 280 279 279 279 279 279 278 278 278 277 278 278 278 277 277 277 278 278 277 278 278 277 278 278 278 277 277 276 275 275 276 276 275 277
291 292 291 291 290 289 289 289 288 288 287 288 288 288 288 288 287 287 287 286 286 286 286 286 287 287 286 286 286 285 285 285 285 285 284 284 283 283 283 282 282 282 282 282 282 281 281 281 280 280 279 279 279 279 280 279 279 279 279 278 277 277 277 278 277 277 278 277 277 277 278 277 277 277 277 278 278 277 276 276 275 273 274 275 275
289 289 289 288 288 288 288 287 287 287 286 287 287 288 288 288 288 287 287 287 286 286 286 287 287 286 286 285 285 285 285 285 284 284 284 284 283 283 282 282 282 281 281 281 281 281 280 280 280 279 279 279 279 278 278 278 278 278 277 277 276 279 277 276 277 277 277 277 277 277 277 277 277 277 277 277 277 277 277 277 276 275 273 271 274
288 289 289 289 286 286 287 287 286 286 286 287 288 288 288 288 287 287 287 287 286 286 287 286 286 285 285 285 285 284 285 284 284 284 283 283 283 282 282 281 281 281 281 281 281 280 280 280 279 278 278 278 278 278 278 278 277 277 277 276 276 276 277 276 276 277 277 277 277 277 277 277 277 277 277 277 277 277 277 276 276 275 275 273 271
287 287 287 288 288 288 287 286 286 287 287 287 287 288 288 288 287 287 287 286 286 286 286 286 285 285 285 284 285 285 285 284 284 283 283 282 282 281 281 280 280 280 281 281 280 279 279 280 278 278 278 277 277 277 277 277 277 277 276 276 275 275 275 275 276 276 276 276 277 277 277 277 277 276 277 276 277 276 276 276 276 276 277 275 274
288 288 288 288 288 288 287 287 287 287 287 286 286 286 286 287 287 287 287 287 287 286 286 286 286 286 286 285 284 284 284 284 283 283 282 282 281 281 280 280 280 280 280 279 279 278 278 278 278 277 277 277 277 277 277 276 276 276 275 275 275 275 275 275 275 275 275 276 275 275 275 275 276 276 276 276 276 276 276 276 276 276 276 276 275
287 288 289 289 289 288 288 287 287 287 286 286 285 285 285 287 286 286 287 286 285 285 286 285 285 285 285 284 284 284 284 284 283 282 282 282 281 280 280 279 279 279 279 279 278 278 278 277 277 277 276 276 276 276 276 276 275 275 275 275 274 274 274 274 274 274 275 275 274 273 274 274 275 274 274 275 275 275 275 276 277 277 277 277 277
288 288 288 288 288 288 288 287 287 285 284 284 284 285 286 285 286 286 286 285 285 285 285 285 285 285 284 283 283 283 283 283 282 282 281 281 280 280 280 279 279 279 278 278 277 277 277 277 276 276 276 276 275 275 275 275 275 274 274 274 273 273 273 273 273 273 273 273 273 272 273 273 273 273 274 274 273 273 273 274 274 274 274 275 274
287 287 287 287 287 287 288 285 283 284 284 284 285 285 284 285 286 286 285 285 285 286 285 286 285 285 284 284 283 283 282 282 281 281 281 280 280 280 279 278 278 278 278 277 277 277 276 276 276 275 275 275 275 275 274 274 274 273 272 274 273 272 272 272 272 272 272 273 272 271 272 272 273 272 271 271 271 271 271 271 271 272 271 271 272
288 288 287 287 287 288 288 287 286 286 286 285 284 285 285 285 285 285 286 286 286 286 286 285 285 284 283 283 282 282 282 281 281 280 280 280 279 279 278 278 278 277 277 277 276 276 276 276 275 275 275 274 274 274 274 273 273 273 272 272 273 272 272 272 272 271 271 271 271 271 271 271 271 270 271 270 271 270 271 270 270 271 270 271 271
286 285 286 287 286 285 284 285 286 286 286 285 285 286 286 285 285 285 285 286 286 286 285 284 284 284 283 282 282 281 281 280 280 280 280 279 278 278 278 278 277 277 276 276 276 276 275 275 275 274 274 274 273 273 273 273 273 272 272 272 272 272 272 271 271 271 271 271 270 270 270 270 270 269 269 269 270 270 270 270 270 270 270 270 270
287 286 287 287 285 285 286 286 286 287 286 286 286 285 285 285 285 285 286 286 286 285 284 284 284 283 282 282 281 281 280 280 280 279 279 278 277 277 277 277 276 276 275 275 275 275 275 274 274 274 273 273 273 273 273 272 272 273 273 272 272 271 271 271 271 271 272 271 270 269 269 269 269 268 268 268 268 268 269 269 269 269 270 270 270
291 290 287 288 289 288 287 286 286 286 286 286 286 286 285 285 285 285 285 285 285 285 284 284 283 283 282 281 281 280 280 280 279 279 278 277 277 276 276 276 276 275 275 275 275 274 274 274 274 274 274 273 273 273 273 272 272 271 271 271 271 271 271 271 271 270 270 270 270 269 269 269 268 267 267 268 268 268 268 269 269 269 270 270 270
290 290 289 287 286 287 288 288 287 287 286 286 286 285 285 285 285 285 285 285 285 284 284 283 283 282 282 281 281 280 280 279 279 278 277 276 276 276 276 275 275 275 274 274 274 274 274 273 273 273 273 273 272 272 271 271 270 270 270 270 270 270 270 270 270 270 270 270 270 270 269 269 269 268 268 268 269 269 269 269 270 270 270 270 270
287 287 287 290 291 291 289 289 288 287 286 285 285 285 285 285 285 284 284 284 284 284 283 283 282 282 282 281 281 280 279 279 278 277 276 276 276 275 275 275 275 274 274 274 274 274 273 273 273 272 272 272 271 271 270 270 270 270 269 269 270 269 269 269 269 270 270 270 270 270 270 270 270 270 270 270 270 270 271 270 271 271 271 270 270
287 288 290 291 291 291 290 289 288 287 286 285 285 284 284 284 284 283 283 283 283 283 282 282 282 282 282 281 280 279 279 278 277 276 276 275 275 275 275 274 274 274 274 274 274 273 272 272 272 271 271 271 271 270 270 270 269 269 270 269 269 269 269 269 269 270 270 271 271 271 271 271 272 273 275 275 275 275 273 272 272 271 270 270 271
288 288 290 291 292 292 292 290 288 287 286 286 285 284 284 284 283 283 282 283 282 282 282 282 282 282 281 281 280 279 278 277 276 276 275 275 275 274 274 274 274 274 273 273 272 272 272 271 270 270 270 270 270 270 272 275 273 270 269 269 269 269 270 270 270 270 271 272 272 272 273 275 276 276 276 277 278 278 278 276 275 275 274 273 273
290 287 289 291 292 293 292 290 288 287 287 287 286 285 284 284 283 282 282 282 282 282 282 282 281 281 280 279 278 278 277 276 276 276 275 275 274 274 273 273 273 272 272 271 271 271 270 270 270 270 269 270 270 270 274 276 277 276 271 269 269 270 270 271 271 271 272 272 273 273 273 274 275 275 274 276 277 277 278 278 278 279 278 276 274
291 290 289 290 291 291 290 290 290 289 288 287 286 285 284 283 283 283 283 282 282 282 282 281 281 280 279 278 278 277 276 276 275 275 274 274 274 273 273 272 271 270 270 270 270 270 270 271 271 270 270 270 270 273 276 277 277 278 276 270 271 271 272 272 273 272 273 273 273 273 273 273 273 273 273 273 275 277 277 278 278 279 279 279 279
292 293 292 292 291 291 291 291 291 291 290 288 287 286 284 284 283 283 282 281 281 282 281 281 280 279 278 278 277 276 276 275 275 275 274 273 273 273 272 271 270 270 269 270 271 270 270 270 270 270 270 270 270 274 276 277 277 278 278 277 274 274 273 273 273 273 273 273 273 272 272 272 272 275 274 273 273 273 276 278 278 278 279 279 279
293 293 292 293 291 291 291 291 292 292 292 292 289 287 287 286 284 282 281 281 281 281 280 280 279 279 278 278 277 276 276 275 275 274 274 273 272 272 271 271 270 270 270 270 270 269 270 270 270 270 270 270 270 274 277 277 277 278 278 278 275 274 274 274 274 274 273 272 272 271 271 271 272 272 273 273 273 274 274 274 274 274 274 276 278
293 291 291 290 289 290 290 290 290 290 290 290 287 286 286 283 282 282 281 281 281 280 280 279 279 279 278 277 277 276 276 275 275 274 273 272 272 271 270 270 270 270 270 269 269 269 269 269 270 270 270 270 270 274 277 277 277 277 278 278 275 275 274 274 273 272 272 272 271 271 271 271 272 272 273 274 274 275 275 275 275 275 275 276 275
293 293 293 292 289 289 290 291 291 290 289 288 288 287 285 284 283 282 281 281 281 280 280 279 279 278 278 278 277 276 276 275 274 273 272 272 272 271 270 269 269 269 269 269 269 269 269 269 270 270 269 269 270 275 276 276 276 277 278 276 275 274 273 272 272 272 272 272 272 272 272 272 272 273 275 278 278 276 275 274 274 274 274 275 275
293 293 292 291 290 290 291 291 291 290 289 288 287 285 285 283 282 282 281 281 280 280 279 279 279 278 278 277 277 276 275 274 273 272 272 272 271 270 269 269 268 268 268 268 268 269 269 269 269 269 269 268 269 273 275 275 276 277 276 274 273 272 272 272 272 272 272 272 273 273 273 272 273 274 276 278 278 278 274 274 274 274 274 274 274
290 290 291 291 290 290 289 290 290 289 288 287 284 284 284 282 282 281 280 280 280 280 280 279 279 278 278 277 277 276 275 273 272 272 272 272 270 270 269 269 268 267 267 267 268 268 269 269 269 268 268 268 268 271 274 275 275 276 275 273 272 272 272 272 271 272 272 273 273 275 276 274 274 274 276 277 278 276 274 274 274 273 272 272 273
289 287 286 287 288 288 288 287 286 287 287 282 283 284 283 282 282 281 281 280 280 280 280 279 279 278 278 277 277 276 275 273 272 272 272 270 269 269 269 268 268 268 267 267 268 267 268 268 268 268 270 268 267 269 273 274 275 275 275 273 272 271 271 271 271 271 272 273 273 275 276 276 275 275 276 277 278 277 274 274 273 272 271 270 271
288 288 285 286 286 285 286 284 283 283 281 280 281 283 283 283 281 280 280 280 280 281 281 280 279 278 277 277 277 276 274 273 273 272 271 270 270 268 267 268 268 267 267 267 267 267 267 267 268 267 269 269 267 267 270 274 274 275 276 273 272 271 270 270 271 271 271 273 274 274 274 275 275 275 276 277 278 278 274 273 273 271 269 268 270
286 286 286 286 285 283 282 282 282 280 278 278 278 280 281 281 280 279 279 281 281 280 280 279 278 277 276 276 276 275 274 273 272 271 270 269 268 268 267 267 267 266 266 266 266 266 266 266 267 267 267 268 268 267 269 273 274 275 276 275 272 271 271 271 271 271 272 272 272 272 271 273 274 275 276 277 277 277 276 273 271 269 269 272 275
287 286 285 285 285 284 282 281 278 278 277 277 277 278 278 278 279 279 280 277 278 278 278 277 276 276 275 275 275 274 273 272 271 270 269 268 267 267 267 266 266 266 265 265 265 265 265 266 266 266 266 266 269 270 268 272 274 275 276 276 273 272 273 272 272 272 272 271 271 270 270 272 274 276 276 276 276 275 275 271 270 274 276 276 272
288 288 287 283 284 285 282 278 276 276 278 280 279 278 278 276 277 278 276 275 275 276 276 275 275 274 274 274 273 272 272 271 270 269 268 267 266 265 266 266 266 265 265 264 264 265 265 265 265 266 266 267 268 270 271 270 273 274 275 275 276 275 276 275 272 271 271 270 270 270 271 273 275 275 274 274 274 274 272 270 274 275 275 275 272
288 287 286 283 285 284 282 279 276 276 277 281 282 282 280 278 279 276 275 274 275 275 274 274 273 273 273 272 271 271 270 270 270 269 268 267 265 265 265 265 265 265 264 263 264 264 265 264 265 265 266 267 268 268 272 272 272 274 274 275 276 276 276 274 273 271 270 270 269 270 271 274 274 273 273 273 273 272 270 272 273 273 273 271 266
288 288 287 285 286 286 286 282 278 277 277 279 281 283 281 280 281 278 277 275 274 274 273 273 273 272 272 271 270 269 269 268 269 269 268 266 265 264 264 264 265 265 264 263 264 264 265 265 265 265 266 267 268 268 269 271 273 273 274 275 275 275 275 275 272 271 270 270 272 273 273 272 272 272 272 271 269 269 271 272 272 272 270 265 264
288 288 288 288 287 285 282 283 282 278 279 279 280 282 282 283 280 277 277 275 274 273 273 272 272 271 270 270 269 268 267 268 268 268 268 267 265 264 264 264 264 264 264 264 264 265 265 265 265 266 266 267 268 268 268 269 271 272 273 274 274 274 274 273 273 271 272 272 271 271 270 270 269 268 267 266 265 266 270 270 270 269 265 263 263
287 288 288 288 287 286 285 284 284 282 279 279 280 281 283 283 278 278 276 275 274 273 272 271 271 270 269 269 269 267 267 267 267 267 267 266 265 265 265 264 264 264 265 265 265 265 265 265 265 266 266 267 267 267 267 268 268 269 270 271 272 272 272 273 270 269 268 265 266 266 267 268 268 268 268 268 267 267 264 264 263 263 263 263 263
286 286 287 286 286 285 285 285 285 285 282 280 280 280 281 281 278 277 276 274 273 273 272 271 270 269 268 268 268 266 266 266 266 266 265 265 265 265 265 265 265 265 265 265 265 265 265 265 265 266 266 266 266 266 266 267 268 269 269 271 271 271 271 269 268 268 265 265 263 265 264 262 262 261 261 260 261 261 262 262 262 262 262 263 265
284 285 285 286 286 286 286 285 286 286 285 282 281 281 281 280 279 276 275 274 273 272 272 271 270 268 267 267 268 266 266 266 265 265 266 266 265 265 266 266 267 268 268 267 266 266 266 267 267 266 265 264 264 265 266 270 269 272 270 270 270 270 269 269 270 270 263 261 259 258 255 258 257 258 258 258 259 259 260 260 261 261 262 262 262
284 284 284 285 285 285 285 285 286 287 286 284 283 282 281 280 278 276 275 274 273 272 271 270 269 268 267 267 266 266 266 265 265 264 264 265 268 270 268 267 267 270 272 272 271 267 267 267 267 267 267 265 264 266 272 274 273 274 274 274 273 272 272 271 270 269 264 255 255 254 255 255 256 257 256 257 258 258 258 259 260 263 262 261 262
281 281 282 283 284 284 284 284 285 286 286 285 284 283 281 279 277 275 274 274 273 271 271 269 268 267 266 266 266 265 265 265 265 264 264 264 265 268 271 271 271 272 272 273 273 273 273 272 268 266 269 271 271 273 274 274 274 274 274 273 272 272 272 271 269 263 256 254 254 254 254 255 256 256 256 257 258 258 258 259 259 260 260 261 262
Wind_Speed
13 6 11 12 13 13 11 10 11 11 12 14 15 15 16 16 15 16 13 13 13 12 11 12 12 8 7 10 11 9 9 8 7 7 8 7 9 9 8 8 8 7 7 7 7 7 6 6 6 5 5 5 5 5 5 5 4 3 1 1 2 3 1 1 3 4 6 6 4 6 8 6 9 10 6 5 4 4 5 7 7 6 5 4 4
7 5 5 6 8 9 9 10 11 13 11 14 17 16 15 15 17 15 12 13 14 14 13 12 12 13 13 13 10 9 9 10 9 8 8 7 9 8 8 8 8 7 7 6 7 7 7 7 6 6 6 6 5 5 4 4 3 2 2 2 1 1 2 2 3 5 5 6 11 12 4 4 6 3 3 3 7 9 10 8 7 5 6 4 3
7 5 3 7 9 10 11 11 13 17 16 17 15 14 14 14 14 14 13 14 13 13 12 12 9 7 8 7 9 6 3 4 5 5 6 8 8 8 7 8 8 7 7 7 7 7 7 7 7 6 6 6 5 5 4 4 4 3 3 2 2 1 1 1 1 4 1 4 5 4 8 12 2 5 3 9 11 10 7 6 5 5 6 5 5
10 7 8 9 11 11 10 11 12 10 11 11 13 16 13 14 14 14 14 13 13 13 12 9 8 5 4 6 5 4 5 5 5 5 6 7 8 8 7 8 8 8 8 7 7 7 7 7 6 6 6 5 6 5 4 4 4 3 3 2 1 2 2 2 1 2 2 4 6 2 4 2 11 2 11 8 8 8 3 6 7 8 7 7 6
9 6 6 7 9 12 15 12 10 13 14 15 15 16 13 16 16 16 15 15 13 13 12 9 9 7 7 6 5 6 5 5 6 6 8 8 7 9 11 9 9 8 8 8 8 8 7 7 6 6 6 5 5 5 4 5 4 3 4 3 2 1 2 1 1 2 2 2 1 3 4 3 2 6 13 14 3 4 5 9 7 5 6 6 5
11 12 13 13 13 9 6 9 13 12 14 15 15 16 15 14 14 14 12 12 13 14 13 12 12 12 11 11 11 8 9 10 13 15 13 13 14 9 7 9 9 8 8 8 7 7 7 7 6 6 5 6 6 5 4 4 4 4 4 4 2 3 3 3 2 1 1 1 1 4 3 4 7 6 6 7 4 12 12 8 5 4 4 5 5
6 6 7 9 9 10 10 12 14 15 14 12 12 14 15 15 16 16 14 12 12 13 14 12 12 12 16 16 14 15 15 12 9 8 10 8 7 10 9 8 9 9 8 8 7 7 7 7 7 6 6 6 4 5 5 5 5 4 3 3 3 3 3 3 4 3 3 1 2 2 1 2 2 1 4 6 13 1 1 5 6 5 6 6 5
10 11 12 13 14 16 17 16 14 16 13 12 13 13 15 15 15 15 12 12 12 13 15 15 15 14 13 13 13 13 14 14 13 11 8 7 9 9 8 8 8 8 9 8 8 7 7 7 7 6 6 5 5 6 6 5 5 4 3 3 3 3 3 3 3 1 1 3 1 1 3 3 3 3 4 5 7 13 7 5 6 9 6 4 6
10 11 13 14 15 15 13 14 11 8 11 14 14 13 13 13 14 13 13 12 12 15 16 15 14 15 15 12 12 11 10 7 7 7 8 8 10 8 8 8 8 8 8 8 7 7 7 7 7 6 6 6 5 5 4 5 5 4 3 2 2 1 2 2 1 2 2 4 3 3 2 3 3 4 5 4 6 7 14 3 7 4 5 9 10
9 12 14 14 14 13 11 6 7 11 10 9 9 10 11 11 13 14 14 13 13 15 16 16 14 13 14 15 15 12 9 6 8 9 9 9 10 10 9 9 8 8 8 7 7 7 7 6 6 7 6 6 5 5 5 4 4 4 3 2 2 1 1 2 2 2 2 3 2 3 3 4 4 4 3 2 4 7 12 14 10 15 14 3 7
8 9 8 9 7 7 7 12 11 6 6 8 9 10 10 12 13 15 16 13 13 15 16 17 15 14 15 16 16 15 13 11 11 10 9 10 11 10 10 9 8 9 7 7 7 7 6 6 6 6 5 5 5 5 4 4 4 4 3 2 2 3 3 2 2 2 2 3 3 4 6 6 6 5 6 5 3 6 10 13 12 9 12 17 4
6 5 6 6 6 6 6 8 10 10 8 10 9 10 11 12 13 15 13 14 14 14 15 16 15 15 13 14 16 15 16 14 15 15 14 14 13 12 9 8 8 7 7 7 7 8 7 7 6 6 6 5 5 4 4 4 4 4 3 3 3 3 2 2 2 2 3 4 4 4 6 6 6 6 5 4 5 7 7 13 13 15 16 8 7
7 8 7 8 11 12 11 10 9 12 14 13 13 12 11 12 14 16 17 15 15 14 16 17 15 16 16 16 14 13 15 15 15 14 13 14 12 12 11 11 9 8 8 9 9 10 9 8 8 8 6 6 5 4 4 4 4 4 4 3 3 2 2 2 2 3 3 4 5 4 5 5 6 4 3 3 3 4 5 11 13 8 14 19 10
8 9 10 12 12 12 12 12 13 12 12 14 13 12 12 12 14 16 17 14 13 13 15 15 18 17 15 14 13 12 14 14 14 14 14 12 12 14 14 13 13 14 13 13 11 10 8 8 7 7 6 5 5 5 4 4 5 6 4 3 2 2 1 2 2 2 3 4 3 5 5 6 6 4 3 3 4 4 6 7 13 11 10 17 16
6 8 10 12 13 13 13 13 12 12 12 12 12 13 12 13 15 17 15 15 15 16 14 17 16 15 14 14 13 12 13 12 12 12 13 13 12 13 12 11 11 11 11 9 9 10 9 8 7 8 7 6 6 5 6 5 5 5 3 3 2 2 2 2 3 3 5 5 4 5 6 5 5 4 3 4 2 3 4 5 7 15 18 12 13
5 6 7 7 8 8 8 9 10 10 11 11 11 12 14 16 16 17 18 17 17 17 17 18 17 14 13 15 16 14 11 10 9 10 12 13 14 14 13 12 10 10 8 9 9 9 9 8 8 8 7 7 6 6 6 6 5 5 3 3 3 2 2 2 3 3 5 4 5 4 4 5 4 4 3 3 3 3 3 3 5 7 10 20 14
6 8 8 8 6 7 9 10 9 9 10 15 19 18 19 16 14 16 16 13 15 18 18 15 14 12 15 15 13 14 15 16 16 15 14 12 13 12 12 11 10 9 9 9 10 8 8 8 8 8 8 7 6 6 6 5 5 4 4 3 3 2 2 3 3 4 4 4 4 4 5 5 3 2 2 2 3 2 3 3 4 6 7 11 16
4 5 5 6 7 9 9 8 10 14 17 17 17 15 13 13 15 16 14 17 18 16 14 13 14 15 15 15 16 16 16 15 12 13 11 11 11 10 9 10 11 10 10 9 10 10 9 9 8 8 7 6 6 6 5 5 5 4 3 3 3 3 3 3 3 3 4 3 4 4 4 5 2 1 2 1 1 1 2 3 5 5 5 9 11
5 6 7 7 9 11 11 13 14 14 12 10 7 8 10 11 14 15 18 19 15 12 12 12 14 13 12 15 16 15 13 12 10 9 9 12 13 12 12 11 10 10 10 10 10 10 9 8 8 7 7 7 6 6 6 5 5 4 3 4 2 3 3 3 3 3 3 3 4 4 3 3 1 0 1 2 2 2 4 4 4 5 6 8 11
6 7 9 10 10 9 11 13 14 16 15 12 11 8 11 14 12 14 13 9 10 14 14 14 14 13 12 10 11 12 11 11 11 11 12 12 12 12 12 12 13 10 11 11 11 11 10 10 8 8 8 7 7 6 6 6 5 5 4 4 3 3 3 3 3 2 2 2 2 3 3 1 1 2 2 2 2 1 2 3 4 6 7 7 9
8 9 9 10 9 9 10 8 7 3 3 6 11 15 14 9 11 13 15 15 14 14 14 15 13 14 13 14 15 13 13 10 10 11 12 11 10 11 11 11 11 11 11 11 11 11 10 10 9 8 8 7 7 7 6 6 5 4 4 3 3 3 3 3 3 3 2 2 3 3 2 1 1 2 2 2 2 2 2 4 5 5 7 7 7
7 8 8 7 8 9 8 5 5 6 8 11 12 10 11 15 17 14 11 12 15 15 17 17 14 12 14 14 12 10 10 10 11 11 13 12 12 12 11 11 13 11 12 12 11 10 9 10 9 8 8 8 8 7 7 7 6 6 4 4 5 4 4 4 3 4 2 2 1 2 2 1 1 2 2 2 2 3 3 5 5 5 7 7 6
6 7 7 9 8 10 9 9 10 12 13 12 11 14 16 17 15 13 16 18 18 17 12 10 11 13 14 11 10 10 10 11 12 11 12 12 11 10 11 13 12 11 9 11 11 11 10 10 9 9 9 8 8 8 7 7 7 7 6 5 5 4 4 4 4 4 3 2 3 3 2 0 1 2 3 4 3 4 5 6 7 6 7 7 7
6 5 5 7 6 4 4 7 11 12 12 14 15 14 13 11 13 14 16 19 16 13 13 12 11 12 12 11 12 11 12 12 13 12 12 9 9 8 9 11 11 11 12 9 10 11 10 11 10 10 10 9 9 8 7 7 7 7 6 6 5 5 4 4 4 3 3 3 3 3 3 2 2 4 4 4 4 4 5 6 7 8 8 9 8
8 7 8 6 4 7 11 12 13 14 13 12 12 13 13 15 13 15 18 17 13 11 12 14 14 14 13 14 13 13 14 14 14 11 11 10 10 9 9 10 11 11 11 11 10 10 11 11 11 11 10 9 9 9 8 7 6 6 6 5 5 5 4 4 4 3 4 3 3 3 3 3 3 5 4 4 4 6 7 7 8 8 9 9 9
12 10 6 7 9 9 9 10 11 11 11 12 12 12 13 14 16 16 15 12 15 13 14 14 14 15 15 16 15 13 15 15 14 12 12 11 10 10 10 8 11 12 11 11 12 11 11 11 10 10 9 9 8 8 7 6 6 5 5 4 4 4 4 3 4 4 3 3 4 4 5 5 5 5 5 5 6 8 8 9 11 10 10 10 11
13 10 8 6 6 10 13 13 12 12 11 11 12 14 13 14 14 13 14 14 13 14 15 15 14 15 13 14 14 15 13 12 12 11 10 10 11 11 11 11 10 11 12 12 11 11 8 9 9 9 9 9 8 7 7 7 6 5 5 4 4 4 3 3 4 4 5 5 5 5 5 6 6 6 6 6 7 10 9 12 12 12 11 12 12
6 3 7 11 13 12 11 13 12 12 12 11 11 13 14 15 17 15 14 13 12 13 14 14 14 14 15 15 15 14 13 13 11 11 11 11 11 11 12 10 11 12 12 11 12 11 9 8 9 8 8 8 8 7 6 6 5 5 5 4 5 5 4 4 4 5 6 6 6 6 6 6 7 7 7 9 9 10 10 12 11 11 11 11 11
6 7 11 12 12 13 12 12 12 11 12 13 12 12 12 11 11 10 11 14 13 13 13 14 14 15 16 15 12 10 11 11 12 12 13 13 13 12 11 11 10 10 9 10 9 10 10 9 8 8 8 7 7 7 6 7 7 7 7 7 6 5 5 5 5 6 6 7 7 7 7 8 8 11 15 15 15 14 9 9 9 10 11 11 11
9 10 11 12 14 13 13 12 11 12 14 13 13 13 14 15 14 12 12 12 11 14 15 14 16 16 13 12 12 12 12 12 13 14 14 13 12 12 11 11 10 10 9 9 9 8 9 10 10 8 7 7 7 5 9 14 11 7 6 5 4 4 5 6 6 6 7 7 7 7 8 13 14 15 16 18 20 21 23 18 14 12 12 11 11
12 9 13 14 15 14 13 11 12 14 16 16 15 15 13 13 10 10 13 12 13 13 13 15 16 13 12 12 12 13 13 14 14 12 11 12 12 11 11 11 10 9 9 9 9 10 9 9 10 9 9 7 6 6 14 13 14 15 9 6 6 5 6 7 7 7 6 7 7 7 7 9 11 13 13 19 20 22 23 24 26 24 21 16 14
15 13 13 14 15 14 12 13 16 17 16 14 13 13 11 13 12 13 13 11 12 13 14 14 13 11 12 14 13 13 13 12 12 13 13 12 12 12 12 11 10 10 9 8 10 10 9 8 6 7 6 6 6 10 15 15 15 15 13 8 6 6 7 7 7 7 6 6 7 8 8 6 6 9 11 12 16 22 24 25 25 24 24 25 25
16 18 17 15 15 14 15 16 15 15 14 15 15 12 13 14 13 15 10 12 14 14 13 12 11 13 13 13 12 14 14 13 14 14 13 13 14 13 13 12 13 11 10 11 10 9 8 7 7 8 7 7 6 12 15 15 14 13 13 11 7 7 6 6 6 5 6 7 6 7 7 7 7 16 14 14 15 15 20 26 27 28 28 28 27
16 15 14 14 11 10 12 14 16 16 15 16 13 14 16 14 12 8 13 13 13 12 13 13 12 13 14 14 13 14 15 14 13 14 14 14 15 15 14 12 12 10 10 10 10 10 9 9 9 9 8 8 7 12 15 14 13 13 13 11 4 6 5 5 6 6 4 4 7 6 7 8 9 10 11 13 14 15 15 15 14 13 14 18 23
13 12 12 11 10 11 12 12 12 14 14 11 9 11 10 6 9 12 12 13 13 13 12 13 13 14 13 13 14 15 15 14 14 15 15 15 16 13 14 13 10 11 13 12 10 10 10 11 10 9 8 8 7 14 15 15 13 13 13 11 5 6 5 5 4 3 5 7 7 8 9 10 10 11 11 15 15 14 13 11 12 13 13 14 15
15 15 15 13 11 12 13 15 14 11 10 9 12 11 9 11 10 13 12 13 13 13 13 11 13 14 15 15 15 15 15 15 15 15 16 16 16 16 16 12 13 11 10 10 9 8 11 12 11 10 8 7 7 16 14 14 13 13 13 6 4 5 5 3 2 5 6 7 7 9 10 10 11 12 15 21 19 16 14 15 16 16 16 15 12
18 16 15 13 11 12 14 12 10 9 9 10 10 8 10 8 10 10 12 12 12 13 14 15 15 15 15 15 16 16 16 16 16 16 17 17 16 15 13 12 13 13 13 12 13 10 8 9 9 11 9 6 6 11 13 12 12 12 9 3 4 3 3 5 5 6 6 7 8 10 11 10 10 11 15 20 21 21 14 16 17 16 13 13 13
15 15 15 12 11 10 10 9 11 10 10 8 6 9 10 10 10 9 11 11 13 15 15 15 16 15 16 15 15 16 17 16 16 18 18 15 13 12 14 13 15 14 13 12 10 8 7 7 11 12 7 8 7 9 13 11 11 11 8 4 4 5 5 4 4 6 6 7 9 16 14 11 11 12 17 20 22 18 14 14 14 15 16 14 12
13 12 13 14 13 10 9 7 7 11 9 4 5 8 9 10 10 12 12 12 15 15 14 16 17 15 14 14 14 15 16 17 18 17 16 17 16 15 12 11 11 11 12 11 11 12 10 7 7 9 14 9 7 8 12 11 12 12 9 5 5 4 5 5 4 5 7 7 8 10 13 12 12 14 20 20 22 19 13 13 14 14 14 13 11
14 14 11 10 10 12 12 10 8 6 5 0 2 6 8 10 10 9 13 15 16 18 17 11 9 11 12 12 13 15 15 17 17 15 14 14 12 12 13 13 11 10 11 10 11 11 11 7 8 8 8 9 8 6 7 13 12 12 12 6 5 6 5 4 5 6 6 6 5 5 7 12 16 18 19 21 21 23 15 13 13 12 13 16 14
10 11 11 11 10 7 6 6 8 7 4 3 1 0 4 5 8 9 14 18 13 7 8 10 10 10 11 13 12 15 16 14 13 14 12 10 10 12 12 11 11 9 9 10 11 11 11 9 7 8 7 7 8 8 8 13 13 13 13 11 5 5 4 6 6 6 5 4 4 5 5 11 16 17 19 21 21 21 20 13 11 11 12 17 22
7 8 8 9 10 9 8 6 5 5 4 3 2 1 2 4 3 10 7 2 4 5 6 8 11 12 11 12 13 11 12 12 12 12 14 12 9 9 11 11 9 10 12 12 11 10 9 7 7 7 8 7 9 12 6 12 13 13 12 12 6 5 7 6 6 4 2 1 4 7 6 11 16 18 20 20 20 19 21 12 11 19 25 26 19
14 15 12 8 10 11 8 4 1 0 2 3 3 3 4 4 7 4 1 2 3 4 6 7 8 10 11 12 11 13 13 11 13 14 15 14 12 12 11 10 11 11 12 12 11 10 7 8 7 6 6 7 7 9 13 8 12 12 12 11 10 8 10 4 1 1 1 1 5 7 9 14 16 18 18 18 18 20 16 12 21 23 23 26 20
11 7 9 8 9 8 9 5 3 2 4 5 7 6 5 6 11 5 6 7 8 6 7 8 8 9 9 10 10 11 11 11 13 13 13 14 14 13 12 10 10 11 11 10 8 8 7 8 9 7 7 7 7 6 11 13 10 13 11 11 10 9 8 2 2 1 0 1 5 7 8 15 17 16 16 16 16 16 13 19 21 22 22 20 11
13 14 11 8 10 12 11 7 5 4 4 6 6 9 9 10 8 6 6 6 7 9 9 10 11 11 11 10 10 11 11 11 12 14 15 13 14 14 13 10 11 10 11 11 10 7 6 7 7 8 8 8 7 7 5 10 14 11 12 10 8 7 6 6 1 2 0 4 7 10 13 14 13 13 15 15 13 15 18 19 21 22 20 9 10
10 10 11 11 11 9 8 10 10 6 6 5 7 8 10 11 6 9 9 10 10 11 10 10 9 9 10 11 13 11 11 12 14 12 13 13 16 14 13 12 11 11 11 10 9 7 6 6 7 8 9 8 7 6 6 6 8 10 9 9 8 6 5 6 4 1 7 5 6 8 10 10 10 10 8 6 6 8 16 19 20 19 9 9 8
14 13 12 12 9 11 11 11 12 7 6 7 8 9 11 4 7 9 10 10 12 12 11 10 11 10 10 11 14 12 12 12 13 11 11 12 12 13 14 14 11 9 9 7 8 9 8 6 7 7 7 8 9 7 7 6 6 6 4 5 4 3 5 4 0 2 2 3 4 4 5 8 8 12 13 13 12 13 10 10 8 8 8 8 9
11 13 13 12 12 11 12 12 12 12 7 8 9 11 11 7 6 8 10 11 12 13 14 14 14 11 10 11 12 13 14 12 13 13 14 13 13 14 16 17 18 15 14 13 12 7 9 11 11 10 9 8 7 7 7 7 7 7 6 6 6 6 4 5 2 2 3 1 1 4 6 4 5 5 6 4 5 5 7 8 8 8 8 9 11
15 13 12 13 13 14 14 14 15 12 9 9 12 12 10 11 11 11 13 14 13 13 11 12 13 12 13 12 12 13 13 12 12 11 11 12 16 12 12 12 12 13 16 17 15 13 12 11 11 12 12 9 7 8 8 9 9 11 9 6 5 6 5 4 4 6 4 2 1 1 3 4 3 5 5 6 6 7 7 7 9 9 8 8 8
14 13 14 15 15 15 15 16 15 13 11 11 12 12 10 10 8 10 12 14 13 12 12 12 12 12 12 13 12 12 12 12 12 12 11 8 7 12 10 12 13 13 13 12 14 14 14 12 11 8 8 12 12 9 15 19 16 14 14 13 11 10 9 7 5 7 5 2 1 1 3 4 4 5 6 6 7 7 8 8 7 10 10 9 9
18 18 18 17 16 16 15 16 16 14 13 13 13 11 9 9 10 11 13 14 13 12 11 11 11 12 13 14 13 13 12 12 12 13 12 12 10 10 13 10 11 16 15 17 15 15 20 17 13 11 10 12 14 17 17 15 15 14 13 12 12 10 9 9 8 7 2 1 0 1 3 3 4 4 5 6 7 8 8 8 9 8 8 10 11
Wind_Direction
261 200 208 205 197 189 181 169 169 169 167 167 167 172 169 168 164 172 171 165 162 163 167 164 166 163 170 180 180 177 174 169 170 167 165 160 162 161 160 161 163 162 165 160 163 162 161 156 151 161 161 161 168 185 182 167 153 142 133 85 358 346 358 81 329 327 322 311 279 271 291 273 274 282 292 320 321 321 318 319 306 306 309 311 298
274 240 217 204 185 174 164 164 157 163 179 170 173 173 169 168 171 168 169 171 173 173 171 174 177 179 175 182 174 172 165 170 173 179 169 158 160 163 162 164 165 166 167 165 166 165 162 160 163 170 171 178 184 185 173 156 136 112 116 50 47 8 293 31 338 15 12 2 334 328 299 284 262 292 318 0 346 325 316 318 314 312 311 302 316
273 267 209 193 181 172 167 171 179 177 170 174 169 163 168 171 174 170 176 174 178 174 172 179 175 171 172 168 169 160 170 157 155 155 148 153 164 164 160 164 166 169 169 171 168 173 172 164 173 174 175 173 164 172 157 142 137 129 116 114 18 355 307 316 39 75 338 324 289 323 333 348 340 355 22 353 316 304 306 305 302 311 302 305 306
245 218 196 188 179 174 170 175 178 162 163 167 168 169 170 176 176 174 177 177 177 181 177 169 160 140 116 132 128 134 161 148 132 129 140 144 166 170 169 169 169 171 174 171 172 175 172 169 166 169 178 171 169 165 160 146 121 103 101 105 113 2 18 315 60 72 86 11 5 24 297 359 323 340 329 312 310 305 338 318 316 305 304 308 319
233 219 216 181 175 184 183 178 162 168 174 174 171 174 177 179 178 176 177 180 180 176 171 154 137 126 116 102 97 92 87 130 134 162 172 170 159 182 185 173 172 171 173 175 174 176 171 166 165 171 167 173 159 159 157 155 142 139 132 120 135 169 276 258 310 80 44 99 145 354 343 5 223 309 336 309 353 319 305 300 293 280 287 295 299
216 207 196 190 187 176 170 166 176 177 180 181 175 176 173 177 177 178 178 179 180 176 169 162 165 158 152 154 165 170 173 174 186 184 180 183 188 172 164 175 171 172 176 176 175 172 171 168 166 164 169 169 164 164 157 129 125 128 154 145 154 178 206 252 268 344 117 83 192 181 190 236 317 324 353 301 351 302 290 294 279 261 270 286 279
232 212 187 180 188 176 181 182 185 182 187 171 174 177 177 176 178 179 179 180 177 174 170 168 170 176 178 180 179 181 182 200 190 179 181 179 159 175 177 172 175 171 178 176 177 176 169 168 168 170 171 171 167 151 154 150 145 145 143 133 165 169 150 220 260 277 350 253 209 239 252 253 199 309 262 309 311 305 348 308 299 302 294 285 292
200 200 193 190 182 182 186 191 187 189 171 170 176 179 179 179 177 181 180 179 177 173 178 179 178 180 181 185 186 189 192 189 182 182 174 163 169 175 168 177 174 174 173 179 178 175 170 170 169 169 170 176 164 166 160 154 132 124 127 137 136 152 166 192 236 236 254 283 86 317 297 304 300 275 249 254 275 295 282 267 253 275 290 294 298
195 195 194 189 191 197 189 189 192 162 168 178 182 180 178 177 177 177 180 179 179 180 181 186 184 182 184 181 190 200 190 180 169 164 168 168 171 172 174 174 175 178 178 177 179 175 173 172 169 168 169 176 166 161 158 148 146 144 132 126 149 153 158 182 162 220 179 249 322 309 315 274 283 259 269 251 268 293 292 243 292 229 260 287 295
211 206 194 194 196 193 191 166 162 184 178 177 175 171 176 174 178 179 185 184 181 184 185 187 187 181 185 190 190 186 176 158 165 172 173 171 178 179 178 177 179 177 182 179 177 179 173 169 170 172 173 171 164 164 153 141 131 127 134 144 147 170 195 171 191 208 210 246 234 262 288 305 300 288 243 295 264 233 275 303 309 316 313 285 300
212 208 201 198 191 181 157 173 180 166 173 174 176 178 175 179 180 186 190 185 183 186 185 189 189 188 193 191 189 183 178 167 168 180 174 176 182 181 180 181 179 183 175 183 178 173 172 171 169 172 167 167 159 156 163 149 136 127 131 137 171 193 214 213 237 231 219 238 242 228 243 245 245 259 280 291 281 294 305 297 307 299 296 307 253
201 191 190 169 161 170 166 178 177 179 174 182 181 177 181 183 183 188 190 190 188 188 188 191 190 195 197 192 192 187 176 178 182 182 182 182 180 178 175 172 184 178 179 175 182 176 170 172 168 162 167 165 163 159 153 139 129 124 127 145 157 158 159 161 185 228 241 244 244 239 243 236 241 243 257 268 282 293 302 298 309 319 310 277 297
184 193 174 179 183 181 187 187 174 186 190 184 185 185 185 186 187 188 196 192 191 188 192 192 192 196 195 195 196 188 187 185 183 182 182 182 179 175 174 181 173 178 187 183 189 180 172 170 170 170 168 167 159 152 155 137 130 128 136 138 145 164 181 180 200 216 211 226 235 243 230 238 242 247 254 267 293 308 315 307 301 314 296 303 304
194 188 187 186 188 191 190 186 191 190 189 187 186 187 189 191 192 194 199 190 190 192 195 194 200 199 194 194 193 190 195 189 187 183 182 182 179 180 181 180 180 186 181 189 183 176 174 174 166 162 160 158 158 159 150 139 129 127 131 139 156 182 171 198 216 234 237 239 238 242 247 246 256 255 257 276 286 312 304 301 306 302 287 294 301
188 189 193 191 193 189 188 191 191 190 188 188 191 194 189 196 195 198 194 194 191 195 194 201 204 200 196 195 192 193 195 195 194 184 177 179 181 180 184 181 183 182 184 179 167 172 171 165 164 160 161 159 155 152 146 132 131 128 139 156 158 172 202 207 238 236 247 248 244 234 244 253 251 252 247 256 239 251 264 295 313 312 310 292 300
197 199 205 212 200 195 191 190 192 186 187 193 198 197 197 202 198 199 198 194 193 193 198 201 203 200 198 194 197 193 193 194 195 190 187 181 178 180 181 182 181 173 169 159 170 167 166 164 160 161 155 153 153 151 143 135 132 132 138 140 167 154 185 208 227 227 240 241 244 248 246 254 249 243 239 239 235 242 254 281 287 295 302 307 313
209 205 204 205 203 206 204 194 185 181 182 196 201 198 201 196 195 201 204 199 200 202 201 198 198 197 205 202 195 193 193 194 196 193 185 180 177 180 178 178 167 167 162 162 161 162 160 159 157 155 155 153 150 149 141 137 134 138 147 151 171 183 185 213 220 228 239 237 245 243 241 250 247 223 234 226 235 254 258 252 253 260 283 289 303
239 245 236 225 213 206 203 203 197 196 199 200 201 198 198 198 200 202 200 202 206 201 201 199 198 203 204 204 203 199 197 197 194 191 182 176 179 173 165 165 173 165 161 162 155 155 155 155 153 155 154 150 151 145 137 134 130 133 141 151 168 171 206 229 224 227 239 222 239 248 244 251 245 231 232 260 281 263 268 257 253 253 256 268 283
220 222 226 227 215 210 202 204 204 207 210 209 197 189 196 201 205 204 206 208 202 196 200 205 203 206 204 206 204 202 199 195 191 183 179 183 181 176 172 168 155 159 154 152 153 154 154 155 153 153 152 151 145 139 133 130 133 138 140 157 170 174 207 230 232 227 240 223 235 242 243 241 248 284 349 346 329 295 272 264 250 255 253 257 273
215 219 223 221 224 219 208 208 203 202 201 194 185 185 204 208 202 209 214 204 196 200 201 205 206 205 207 205 208 206 200 193 185 180 186 190 183 174 167 163 166 155 159 155 155 156 156 155 157 154 154 149 144 140 139 139 139 148 155 164 185 184 215 230 237 219 211 225 248 261 263 279 353 22 9 347 333 318 312 299 287 274 266 260 263
220 221 220 221 222 223 228 228 234 241 191 178 185 195 202 195 212 213 207 204 204 205 199 208 201 205 202 203 204 197 197 188 182 187 186 187 181 178 175 163 148 164 153 157 157 158 157 156 155 157 155 154 148 149 147 144 145 149 154 168 184 190 213 233 223 243 228 236 249 254 271 305 22 350 332 337 315 305 303 288 286 284 279 281 280
224 222 219 222 228 230 232 223 211 198 200 198 199 190 194 203 209 203 203 208 209 209 205 205 200 200 203 206 202 195 191 185 186 187 190 185 180 178 168 158 165 158 159 157 158 157 156 154 154 155 155 153 153 151 149 146 152 154 166 167 179 193 214 228 224 241 234 226 235 263 278 310 343 307 305 290 288 283 276 274 263 265 268 268 271
230 220 217 220 222 225 222 214 205 206 210 203 191 196 202 205 200 201 202 210 208 212 206 199 198 199 204 200 190 193 190 188 189 192 194 187 180 171 168 165 161 156 158 158 157 156 157 154 154 157 156 158 158 156 156 153 159 161 170 179 179 188 204 216 216 226 227 219 234 245 260 33 313 292 274 269 262 264 264 263 263 256 260 260 259
252 244 245 228 229 222 210 218 216 215 213 209 204 205 208 203 202 201 207 214 208 204 197 197 197 201 198 191 193 191 186 189 193 194 192 184 174 171 168 166 160 155 157 156 155 156 155 159 158 161 162 160 159 156 156 158 160 164 171 180 181 186 191 188 203 217 211 214 239 258 261 244 244 264 264 264 254 257 258 258 256 252 250 252 251
275 250 235 227 212 215 218 216 216 218 216 213 210 207 203 206 201 205 213 211 204 196 192 196 196 196 192 194 194 188 191 190 194 187 187 174 173 168 171 167 159 159 158 153 157 158 159 162 166 166 162 161 160 156 156 157 158 160 168 172 172 162 180 197 211 219 239 225 231 237 240 238 247 254 258 256 262 262 260 256 257 255 251 248 242
262 263 266 244 229 222 229 229 228 226 216 213 213 211 210 207 205 206 209 199 203 194 199 195 196 193 194 192 191 190 193 193 187 183 179 173 168 169 168 168 166 161 159 163 161 167 167 166 162 160 157 154 151 152 154 153 153 152 155 164 162 173 181 192 211 213 213 229 235 236 240 244 240 246 256 257 258 261 260 258 256 253 249 246 242
243 240 246 260 257 237 229 230 227 224 218 217 211 210 213 212 214 210 209 203 198 193 196 194 193 196 193 194 188 192 189 187 185 176 164 165 169 168 169 170 169 163 163 164 166 162 164 157 157 153 155 151 148 147 148 150 151 152 157 165 171 172 185 186 205 218 234 233 234 231 227 235 237 239 250 254 260 258 252 249 248 250 244 244 245
252 262 249 243 243 240 234 233 229 229 223 219 217 216 213 209 210 207 201 196 194 192 193 193 190 194 196 194 194 187 180 180 174 164 164 166 166 169 172 167 164 168 169 167 164 162 157 153 153 150 147 143 144 143 145 147 148 153 160 171 184 193 203 212 209 224 232 238 238 239 239 237 242 244 246 251 247 252 251 253 249 247 244 243 243
235 229 241 243 244 240 238 235 232 231 226 223 221 221 219 222 221 206 195 201 191 186 189 191 192 196 198 192 181 176 175 167 166 163 166 168 169 168 165 165 167 166 166 165 157 151 149 145 141 139 137 139 145 154 153 157 161 170 170 184 186 189 197 209 224 227 234 240 240 237 236 236 240 251 259 263 258 254 248 245 236 217 229 237 244
257 237 239 240 238 238 237 236 233 227 226 223 220 220 216 213 213 201 197 199 173 190 188 191 195 199 191 179 175 171 170 166 166 171 170 166 164 164 163 165 167 164 158 153 149 146 146 145 141 140 140 145 154 157 176 180 180 171 175 177 183 191 204 215 223 237 241 237 243 254 258 268 275 276 276 275 277 278 277 278 279 278 273 267 261
270 236 241 242 242 240 241 237 234 230 226 223 219 218 217 218 211 196 199 189 182 187 190 192 199 191 178 171 170 173 166 172 173 166 165 163 164 162 163 163 160 156 153 150 145 145 144 147 148 151 155 158 165 172 185 191 191 188 178 179 178 193 201 217 222 228 243 256 257 260 265 272 281 282 280 278 280 280 278 278 280 280 278 277 278
268 251 240 244 246 246 240 233 233 231 226 222 223 221 212 215 204 201 196 175 182 187 191 195 191 175 173 173 174 167 169 171 166 169 166 165 159 160 162 160 153 150 148 144 150 152 143 137 137 136 147 161 170 187 190 192 195 197 185 175 182 190 204 211 229 239 242 255 271 277 276 277 274 277 273 275 277 277 279 281 282 283 283 281 277
260 259 253 248 245 236 230 233 236 234 227 223 219 214 211 213 201 205 165 174 185 188 189 187 180 176 176 174 169 170 171 169 173 167 164 162 162 162 161 158 162 157 149 156 154 144 144 141 146 152 161 170 173 192 192 192 196 198 202 193 178 190 200 213 226 233 255 262 272 282 285 275 271 274 278 274 271 269 269 272 276 277 277 277 280
252 256 257 254 247 243 235 233 234 234 229 230 217 210 216 211 197 163 171 181 179 186 184 184 177 179 177 175 172 171 174 173 167 165 164 166 166 171 167 162 154 155 156 154 148 145 152 153 159 161 162 175 174 191 191 193 193 199 202 206 173 191 208 225 240 244 246 278 282 275 271 271 266 266 266 269 270 272 275 275 270 262 257 260 265
266 261 257 252 239 235 241 245 244 237 236 231 224 214 214 169 164 174 178 173 183 181 183 180 180 180 176 175 175 174 174 170 169 167 168 171 171 165 164 166 161 159 158 161 159 156 161 163 166 166 163 170 176 189 190 190 192 196 201 205 184 197 199 198 205 247 276 267 265 261 263 265 269 268 265 270 279 280 278 281 285 287 282 281 273
282 273 271 263 243 231 229 236 237 237 237 217 221 209 185 194 170 174 176 179 178 181 183 177 182 183 182 179 175 176 173 170 170 170 171 173 173 170 167 163 160 162 162 159 162 158 161 167 167 166 159 162 175 187 186 189 191 194 199 199 177 187 181 208 227 244 247 250 249 255 258 262 265 268 270 281 289 296 298 295 289 282 277 276 273
303 290 279 269 253 236 237 239 245 235 227 222 218 183 184 164 170 178 172 175 173 181 185 186 188 185 184 180 178 175 174 173 173 172 177 175 172 169 166 162 162 166 166 171 170 169 161 158 151 146 143 152 165 186 186 187 192 196 199 165 172 170 211 216 231 232 242 246 250 253 255 262 268 271 287 296 298 300 296 289 284 286 289 292 289
329 325 313 299 285 280 269 255 253 254 238 227 181 173 168 170 175 169 167 177 181 192 189 187 191 187 183 179 178 175 174 173 174 180 179 175 170 167 169 169 168 166 171 172 166 142 133 138 146 148 156 154 160 184 186 187 191 197 195 168 188 193 201 214 231 235 237 243 246 260 271 275 284 292 296 298 298 297 290 294 301 301 297 290 286
341 341 335 325 317 298 278 270 256 254 258 183 168 161 162 178 175 175 177 177 194 196 188 192 193 183 178 177 176 176 176 176 179 181 175 172 173 173 166 166 169 167 167 166 165 162 160 136 145 149 171 164 151 179 186 185 189 196 198 172 182 183 211 222 226 241 242 245 248 252 273 286 294 297 298 298 297 302 304 306 306 300 297 296 298
337 344 342 327 329 341 340 346 343 329 8 15 140 166 178 180 182 169 180 194 198 199 196 184 165 169 173 172 176 178 178 178 180 175 175 174 165 160 169 169 168 167 165 164 159 159 150 141 157 155 171 164 159 167 186 184 190 195 199 185 188 205 210 212 239 241 254 251 255 285 299 297 296 295 295 298 305 310 310 307 306 304 302 299 298
329 331 334 346 345 4 354 349 348 350 22 51 39 284 221 199 177 181 199 207 199 166 153 165 163 164 172 176 176 180 179 179 174 170 163 160 166 167 162 167 163 161 159 157 158 154 154 152 152 161 159 159 157 156 175 180 186 191 200 204 174 198 202 226 231 246 241 261 301 297 307 293 291 292 298 308 312 313 312 311 312 301 292 294 305
315 322 343 340 340 341 348 360 359 9 25 40 65 81 19 348 292 228 242 23 87 140 137 146 162 170 172 175 177 174 170 167 163 157 163 166 162 159 164 163 161 159 160 158 157 157 153 141 147 156 164 160 168 170 166 181 184 192 199 207 189 202 221 223 235 224 267 298 301 297 286 284 288 299 309 312 313 312 313 316 299 298 303 310 312
327 329 330 337 332 325 324 316 307 150 134 137 124 171 174 172 212 243 6 101 75 125 145 153 158 167 174 174 172 168 167 166 168 167 163 162 158 158 163 165 162 162 160 158 159 157 139 142 149 159 164 166 167 173 173 176 184 188 194 208 214 223 239 230 191 230 210 319 308 282 277 279 298 308 311 312 312 313 316 303 303 309 311 314 318
306 295 295 302 308 301 295 274 243 209 178 165 168 190 201 204 229 177 145 144 155 140 149 159 164 167 168 171 169 166 164 166 167 164 165 160 162 161 160 165 167 162 158 155 159 155 143 147 152 158 165 166 166 161 178 173 178 186 196 204 220 233 244 227 202 147 144 336 285 268 272 298 309 310 310 312 314 315 308 306 310 313 316 320 315
310 310 311 308 301 297 296 281 249 226 209 194 189 193 199 216 219 160 165 154 158 161 159 172 173 172 172 166 161 167 167 167 169 167 166 165 160 159 160 168 164 166 161 156 161 164 157 152 150 159 161 164 164 153 154 175 178 186 193 202 212 226 245 263 282 122 118 251 270 285 304 308 308 312 314 317 315 309 307 310 313 316 319 311 304
306 308 309 309 307 298 286 285 281 245 233 214 211 198 203 226 175 172 170 167 159 167 175 173 172 171 172 163 164 167 167 169 171 175 175 170 164 163 162 161 165 166 164 159 155 155 150 155 159 158 162 158 150 145 153 170 182 186 189 192 198 217 244 260 259 296 287 332 340 321 317 315 317 314 315 306 288 298 308 312 312 312 304 296 292
312 308 309 307 306 300 293 285 283 270 231 240 226 226 230 225 171 177 169 166 166 167 171 169 175 173 168 173 174 174 171 171 174 175 173 171 168 164 162 165 165 161 162 153 148 152 156 158 158 158 148 154 155 159 168 175 170 173 171 182 184 196 241 233 101 292 59 38 340 331 309 310 314 309 310 308 306 306 302 297 289 289 289 290 290
302 303 304 300 294 290 286 283 277 275 249 237 233 234 230 211 181 170 169 167 174 178 179 178 174 170 175 179 184 176 173 175 180 173 166 174 178 173 169 173 175 169 159 163 161 158 163 163 162 161 160 155 163 164 177 180 178 171 178 183 178 180 176 125 184 134 108 79 348 317 319 305 296 296 297 287 280 280 288 294 291 290 287 286 295
308 305 300 296 294 289 282 278 273 269 254 234 237 236 230 211 194 175 168 174 184 185 179 175 174 171 178 181 179 178 183 178 177 177 190 190 181 178 171 168 176 169 168 164 166 173 171 168 162 161 159 158 163 179 186 186 185 175 177 168 158 139 142 151 204 141 119 63 22 326 295 305 306 302 303 305 306 305 298 290 292 295 298 300 298
308 308 304 297 290 285 282 279 275 272 262 250 245 238 226 214 193 178 175 181 181 177 181 182 180 182 179 178 182 181 181 177 175 173 172 179 195 178 171 165 167 176 174 177 170 168 166 159 157 162 164 163 167 173 182 180 183 178 163 149 148 157 166 153 147 89 103 106 283 321 296 301 303 308 310 310 310 307 301 302 296 308 306 300 298
314 314 309 303 299 294 287 279 276 276 269 262 256 248 227 205 191 185 183 187 175 179 187 186 180 189 186 182 179 179 181 179 175 170 170 167 161 172 178 171 164 165 169 163 163 157 153 154 148 143 152 151 156 166 171 175 164 154 152 144 142 148 146 133 112 95 62 150 235 314 300 302 288 289 295 298 301 299 300 303 307 305 299 302 307